sat.trackr.live / text

‹ back to catalog

STARLINK-5601

NORAD 55744 · 2023-028D

PAYLOAD ACTIVE UNKNOWN

§ Identity

Operator
Country
US
Launch date
2023-03-03
Launch site
AFWTR
Launch vehicle
Mass (kg)
RCS (m²)

Purposes: comms

External: N2YO · Heavens-Above · Gunter

§ Orbital elements

Epoch: 2026-05-25T04:14:24.215424Z

Period
96.11 min
Inclination
70.0010°
Eccentricity
0.0003035
Mean motion
14.98324458 rev/d
Perigee alt
570.0 km
Apogee alt
574.2 km
Semi-major
6,950.2 km
B*
-1.5760e-5
RAAN
51.7501°
Arg perigee
267.7255°
Mean anomaly
92.3556°
Rev number
17,749

§ Raw data

STARLINK-56011 55744U 23028D   26145.17666916 -.00000281  00000+0 -15760-4 0  99952 55744  70.0010  51.7501 0003035 267.7255  92.3556 14.98324458177495

JSON: /api/v1/satellites/55744 · /tle

For live sub-satellite position, see the globe view (requires WebGL).

§ Visibility from observer

Set your observer location to see the next 7 days of passes ≥ 10°. The values pass through the URL so the page stays shareable.

No JS? Fill the form by hand. The geolocation button needs JavaScript.